{"data":{"norad_id":66630,"epoch":"2026-05-24T23:58:08.818752Z","epoch_age_seconds":72174,"freshness":"FRESH","line1":"1 66630U 25271P   26144.99871318  .00027320  00000+0  81695-3 0  9996","line2":"2 66630  53.1590 143.8021 0000994  80.0833 280.0282 15.34392523 29278","mean_motion":15.34392523,"eccentricity":9.94e-5,"inclination_deg":53.159,"raan_deg":143.8021,"arg_perigee_deg":80.0833,"mean_anomaly_deg":280.0282,"bstar":0.00081695,"rev_number":2927,"period_min":93.848215395664,"perigee_km":462.04548178818,"apogee_km":463.40544524593,"semimajor_km":6840.8624635171,"source":"CELESTRAK","updated_at":"2026-05-25T13:38:21.296544Z"}}